Location: Cornospital
(48.0620°N, 3.3837°W)
Time: 19:53:48
(UTC+00:00)

COSMOS 2428 - Pass Details

Date: 17 June 2021
Orbit: 845 x 858 km, 70.9° (Epoch: 03 August)

Event Time Altitude Azimuth Distance (km) Brightness Sun altitude
Exits shadow 23:30:18 - 228° (SW) 2,675 5.0 -17.8°
Reaches altitude 10° 23:30:50 10° 229° (SW) 2,486 4.8 -17.9°
Maximum altitude 23:36:22 50° 304° (NW) 1,085 3.5 -18.0°
Drops below altitude 10° 23:41:58 10° 20° (NNE) 2,503 6.1 -18.2°
Sets 23:44:31 0° 26° (NNE) 3,443 6.8 -18.2°
